PST,Max TemperatureF,Mean TemperatureF,Min TemperatureF,Max Dew PointF,MeanDew PointF,Min DewpointF,Max Humidity, Mean Humidity, Min Humidity, Max Sea Level PressureIn, Mean Sea Level PressureIn, Min Sea Level PressureIn, Max VisibilityMiles, Mean VisibilityMiles, Min VisibilityMiles, Max Wind SpeedMPH, Mean Wind SpeedMPH, Max Gust SpeedMPH,PrecipitationIn, CloudCover, Events, WindDirDegrees
2012-12-1,53,46,38,39,36,32,100,74,48,29.67,29.59,29.46,10,10,6,23,8,28,0.04,3,Rain,218
2012-12-2,52,43,33,43,37,28,96,69,41,29.81,29.42,29.20,10,10,7,24,9,30,0.30,5,Rain,191
2012-12-3,50,41,32,40,36,30,96,81,66,30.02,29.94,29.81,10,10,10,15,8,18,0.01,4,,210
2012-12-4,49,45,40,45,41,36,100,88,76,29.79,29.74,29.69,10,9,4,16,5,21,0.21,8,Rain,206
2012-12-5,48,41,33,37,28,22,86,62,37,30.19,30.05,29.74,10,10,10,15,7,17,0.00,1,,222
2012-12-6,44,36,27,33,29,25,92,80,67,30.15,30.06,29.97,10,10,10,17,7,23,0.00,2,,225
2012-12-7,47,37,27,34,28,20,92,68,44,30.04,29.93,29.79,10,10,10,29,12,36,0.00,0,,275
2012-12-8,39,34,29,25,23,21,85,70,54,30.36,30.20,30.02,10,10,10,22,5,28,0.00,3,,336
2012-12-9,32,31,29,30,26,22,92,78,63,30.43,30.33,30.18,10,9,1,10,3,13,T,6,Snow,339
2012-12-10,32,31,29,30,28,27,100,93,85,30.31,30.21,30.04,10,6,0,12,2,14,0.00,8,Fog,31
2012-12-11,35,32,29,32,30,28,100,95,89,30.01,29.74,29.55,10,5,0,10,5,12,0.12,7,Fog-Rain-Snow,12
2012-12-12,36,33,29,34,30,27,100,91,82,30.02,29.81,29.57,10,6,0,9,4,10,0.02,7,Fog-Rain-Snow,344
2012-12-13,31,30,28,30,28,27,100,96,92,30.07,29.98,29.86,10,3,1,8,3,9,0.00,8,,29
2012-12-14,34,32,29,30,28,26,92,84,75,29.98,29.84,29.77,10,7,2,8,2,8,T,8,Snow,324
2012-12-15,32,31,30,31,29,26,100,93,85,29.98,29.73,29.59,10,4,0,12,3,14,0.17,8,Fog-Snow,144
2012-12-16,34,26,18,32,25,15,100,93,85,29.77,29.59,29.16,10,3,0,18,6,23,0.32,8,Fog-Snow,22
2012-12-17,40,32,23,34,27,17,96,75,54,29.84,29.38,29.07,10,9,0,29,12,39,T,3,Fog-Rain,238
2012-12-18,32,24,15,24,18,12,91,80,68,30.02,29.94,29.85,10,10,10,12,5,12,0.00,0,,3
2012-12-19,35,25,15,31,25,12,100,91,82,30.03,29.93,29.80,10,6,1,17,7,21,0.01,7,Snow,44
2012-12-20,44,38,31,30,28,26,92,73,53,29.85,29.74,29.65,10,10,10,21,7,26,0.00,7,,171
2012-12-21,37,33,29,34,32,26,96,91,85,29.91,29.84,29.75,10,10,10,10,6,12,0.03,8,Rain,352
2012-12-22,38,33,27,36,31,27,100,93,85,29.81,29.69,29.57,10,8,0,13,6,15,0.03,4,Fog-Rain,359
2012-12-23,37,32,27,32,29,25,100,88,76,29.87,29.76,29.60,10,5,0,16,10,21,0.22,6,Fog-Rain-Snow,357
2012-12-24,43,35,26,32,27,22,92,74,55,30.18,30.00,29.73,10,10,10,16,8,21,0.04,3,Rain,322
2012-12-25,33,30,26,31,28,23,100,88,75,30.17,29.94,29.82,10,7,1,13,8,15,0.08,7,Snow,11
2012-12-26,35,34,32,32,31,30,96,93,89,29.97,29.84,29.78,10,7,2,9,4,9,0.02,8,Snow,358
2012-12-27,34,32,30,31,30,28,100,91,82,30.20,30.08,29.97,10,4,0,7,1,8,T,8,Fog-Snow,189
2012-12-28,32,31,29,29,26,25,92,85,78,30.26,30.22,30.16,10,10,8,9,5,10,0.00,8,,319
2012-12-29,31,27,23,27,26,20,92,87,81,30.26,30.18,30.12,10,5,0,12,4,14,0.07,8,Fog-Snow,216
2012-12-30,27,19,10,23,18,9,100,88,75,30.39,30.32,30.26,10,4,0,10,4,13,0.00,5,Fog,10
2012-12-31,28,26,24,23,22,20,92,84,75,30.53,30.40,30.32,10,10,9,10,5,13,0.00,8,,340